TimeMDT,TemperatureF,Dew PointF,Humidity,Sea Level PressureIn,VisibilityMPH,Wind Direction,Wind SpeedMPH,Gust SpeedMPH,PrecipitationIn,Events,Conditions,WindDirDegrees,DateUTC
12:13 AM,46.4,42.8,87,30.14,10.0,Variable,4.6,-,N/A,Thunderstorm,Overcast,0,2013-09-19 06:13:00
12:38 AM,46.4,42.8,87,30.15,10.0,Calm,Calm,-,N/A,,Overcast,0,2013-09-19 06:38:00
12:53 AM,45.0,43.0,93,29.87,10.0,SW,4.6,-,N/A,Thunderstorm,Thunderstorm,230,2013-09-19 06:53:00
1:15 AM,46.4,42.8,87,30.16,10.0,Variable,5.8,-,0.00,Rain,Light Rain,0,2013-09-19 07:15:00
1:53 AM,44.1,42.1,93,29.88,10.0,South,4.6,-,0.00,,Partly Cloudy,180,2013-09-19 07:53:00
2:53 AM,43.0,41.0,93,29.90,10.0,SW,5.8,-,N/A,,Mostly Cloudy,220,2013-09-19 08:53:00
3:00 AM,42.8,41.0,93,30.15,10.0,Calm,Calm,-,N/A,Thunderstorm,Mostly Cloudy,0,2013-09-19 09:00:00
3:12 AM,42.8,41.0,93,30.16,10.0,North,5.8,-,N/A,Thunderstorm,Mostly Cloudy,10,2013-09-19 09:12:00
3:34 AM,42.8,42.8,100,30.16,10.0,Calm,Calm,-,N/A,,Scattered Clouds,0,2013-09-19 09:34:00
3:53 AM,44.1,41.0,89,29.93,10.0,South,3.5,-,0.00,Rain,Light Rain,180,2013-09-19 09:53:00
4:53 AM,43.0,41.0,93,29.95,10.0,Calm,Calm,-,0.00,,Scattered Clouds,0,2013-09-19 10:53:00
5:53 AM,39.9,39.0,97,29.98,10.0,South,6.9,-,N/A,,Mostly Cloudy,190,2013-09-19 11:53:00
6:53 AM,39.0,37.9,96,29.97,10.0,SSW,4.6,-,N/A,,Partly Cloudy,200,2013-09-19 12:53:00
7:53 AM,39.0,39.0,100,29.99,10.0,Calm,Calm,-,N/A,,Partly Cloudy,0,2013-09-19 13:53:00
8:53 AM,46.0,41.0,83,29.99,10.0,Calm,Calm,-,N/A,,Clear,0,2013-09-19 14:53:00
9:53 AM,50.0,43.0,77,29.99,10.0,Variable,4.6,-,N/A,,Partly Cloudy,0,2013-09-19 15:53:00
10:53 AM,54.0,44.1,69,29.96,10.0,Calm,Calm,-,N/A,,Partly Cloudy,0,2013-09-19 16:53:00
11:53 AM,57.9,46.0,65,29.96,10.0,North,10.4,-,N/A,,Scattered Clouds,350,2013-09-19 17:53:00
12:53 PM,57.9,45.0,62,29.96,10.0,North,8.1,-,N/A,,Mostly Cloudy,350,2013-09-19 18:53:00
1:53 PM,60.1,43.0,53,29.94,10.0,Calm,Calm,-,N/A,,Partly Cloudy,0,2013-09-19 19:53:00
2:53 PM,60.1,41.0,49,29.94,10.0,NNW,9.2,-,N/A,,Mostly Cloudy,330,2013-09-19 20:53:00
3:53 PM,61.0,37.9,42,29.92,10.0,North,10.4,-,N/A,,Mostly Cloudy,350,2013-09-19 21:53:00
4:53 PM,60.1,32.0,35,29.94,10.0,Variable,5.8,-,N/A,,Mostly Cloudy,0,2013-09-19 22:53:00
5:53 PM,60.1,30.9,33,29.96,10.0,NW,4.6,-,N/A,,Mostly Cloudy,320,2013-09-19 23:53:00
6:53 PM,54.0,39.0,57,29.99,10.0,SE,4.6,-,N/A,,Partly Cloudy,140,2013-09-20 00:53:00
7:53 PM,46.9,39.0,74,30.06,10.0,SSW,6.9,-,N/A,,Clear,200,2013-09-20 01:53:00
8:53 PM,46.0,37.0,71,30.05,10.0,SSW,10.4,-,N/A,,Clear,210,2013-09-20 02:53:00
9:53 PM,43.0,35.1,74,30.06,10.0,SSW,6.9,-,N/A,,Clear,210,2013-09-20 03:53:00
10:53 PM,42.1,34.0,73,30.06,10.0,South,5.8,-,N/A,,Clear,190,2013-09-20 04:53:00
11:53 PM,39.9,33.1,77,30.05,10.0,SSW,5.8,-,N/A,,Clear,200,2013-09-20 05:53:00